TimeEDT,TemperatureF,Dew PointF,Humidity,Sea Level PressureIn,VisibilityMPH,Wind Direction,Wind SpeedMPH,Gust SpeedMPH,PrecipitationIn,Events,Conditions,WindDirDegrees,DateUTC
12:51 AM,48.9,41.0,74,30.15,10.0,Calm,Calm,-,N/A,,Clear,0,2012-09-11 04:51:00
1:51 AM,46.0,42.1,86,30.16,10.0,Calm,Calm,-,N/A,,Clear,0,2012-09-11 05:51:00
2:51 AM,45.0,41.0,86,30.17,10.0,Calm,Calm,-,N/A,,Clear,0,2012-09-11 06:51:00
3:51 AM,43.0,39.9,89,30.18,10.0,Calm,Calm,-,N/A,,Clear,0,2012-09-11 07:51:00
4:51 AM,42.1,39.9,92,30.20,10.0,Calm,Calm,-,N/A,,Clear,0,2012-09-11 08:51:00
5:51 AM,42.1,39.0,89,30.22,10.0,Calm,Calm,-,N/A,,Partly Cloudy,0,2012-09-11 09:51:00
6:51 AM,42.1,39.0,89,30.25,10.0,Calm,Calm,-,N/A,Fog,Patches of Fog,0,2012-09-11 10:51:00
7:51 AM,48.0,44.1,86,30.27,10.0,Calm,Calm,-,N/A,,Partly Cloudy,0,2012-09-11 11:51:00
8:51 AM,52.0,43.0,71,30.29,10.0,Calm,Calm,-,N/A,,Scattered Clouds,0,2012-09-11 12:51:00
9:51 AM,57.9,44.1,60,30.30,10.0,Calm,Calm,-,N/A,,Mostly Cloudy,0,2012-09-11 13:51:00
10:51 AM,62.6,44.6,52,30.29,10.0,Calm,Calm,-,N/A,,Mostly Cloudy,0,2012-09-11 14:51:00
11:51 AM,63.0,43.0,48,30.27,10.0,Calm,Calm,-,N/A,,Mostly Cloudy,0,2012-09-11 15:51:00
12:51 PM,68.0,41.0,37,30.26,10.0,WNW,5.8,-,N/A,,Mostly Cloudy,300,2012-09-11 16:51:00
1:51 PM,68.0,39.9,36,30.25,10.0,Variable,3.5,-,N/A,,Scattered Clouds,0,2012-09-11 17:51:00
2:51 PM,71.1,41.0,34,30.24,10.0,North,3.5,-,N/A,,Scattered Clouds,360,2012-09-11 18:51:00
3:51 PM,70.0,43.0,38,30.23,10.0,NNW,4.6,-,N/A,,Scattered Clouds,340,2012-09-11 19:51:00
4:51 PM,70.0,43.0,38,30.22,10.0,WNW,5.8,-,N/A,,Scattered Clouds,300,2012-09-11 20:51:00
5:51 PM,71.6,44.6,38,30.22,10.0,North,4.6,-,N/A,,Scattered Clouds,10,2012-09-11 21:51:00
6:51 PM,68.0,43.0,40,30.22,10.0,NNW,3.5,-,N/A,,Scattered Clouds,330,2012-09-11 22:51:00
7:51 PM,60.1,46.0,60,30.24,10.0,Calm,Calm,-,N/A,,Partly Cloudy,0,2012-09-11 23:51:00
8:51 PM,55.9,48.0,75,30.26,10.0,Calm,Calm,-,N/A,,Partly Cloudy,0,2012-09-12 00:51:00
9:51 PM,54.0,48.0,80,30.27,10.0,Calm,Calm,-,N/A,,Clear,0,2012-09-12 01:51:00
10:51 PM,53.1,48.0,83,30.27,10.0,Calm,Calm,-,N/A,,Clear,0,2012-09-12 02:51:00
11:51 PM,50.0,46.9,89,30.28,10.0,Calm,Calm,-,N/A,,Clear,0,2012-09-12 03:51:00